Shelbyville, IN

5:09 PM EDT on May 28, 2017 (GMT -0400)
Shelbyville Municipal

Weather History for KGEZ - October, 2013

Change the Weather History Date:

Thursday, October 17, 2013

  Actual Average Record
Temperature  
Mean Temperature 48 °F 54 °F  
Max Temperature 55 °F 65 °F 85 °F (2016)
Min Temperature 40 °F 42 °F 30 °F (2004)
Degree Days  
Heating Degree Days 17 12  
Month to date heating degree days 73 160  
Since 1 July heating degree days 112 245  
Cooling Degree Days 0 0  
Month to date cooling degree days 35 11  
Year to date cooling degree days 1179 910  
Moisture  
Dew Point 43 °F    
Average Humidity 77    
Maximum Humidity 92    
Minimum Humidity 61    
Precipitation  
Precipitation 0.09 in 0.10 in 0.96 in (2006)
Month to date precipitation 2.49 1.78  
Year to date precipitation 25.93 35.23  
Sea Level Pressure  
Sea Level Pressure 29.94 in    
Wind  
Wind Speed 6 mph (SW)    
Max Wind Speed 17 mph    
Max Gust Speed 21 mph    
Visibility 8 miles    
Events Rain    
T = Trace of Precipitation, MM = Missing Value Source: NWS Daily Summary

Daily Weather History Graph

Daily Weather History Graph

Search for Another Location

Airport or City:

Trip Planner

Search our weather history database for the weather conditions in past years. The results will help you decide how hot, cold, wet, or windy it might be!

Date:

Astronomy

Oct. 17, 2013 Rise Set
Actual Time 7:55 AM EDT 7:00 PM EDT
Civil Twilight 7:28 AM EDT 7:27 PM EDT
Nautical Twilight 6:57 AM EDT 7:59 PM EDT
Astronomical Twilight 6:25 AM EDT 8:30 PM EDT
Moon 6:14 PM EDT (10/17) 6:27 AM EDT (10/17)
Length of Visible Light 11h 59m
Length of Day
11h 05m
Waxing Gibbous, 98% of the Moon is Illuminated
Oct 17
Waxing Gibbous
Oct 18
Full
Oct 26
Last Quarter
Nov 3
New
Nov 10
First Quarter

Hourly Weather History & Observations

Time (EDT) Temp. Windchill Dew Point Humidity Pressure Visibility Wind Dir Wind Speed Gust Speed Precip Events Conditions
12:53 AM 45.0 °F - 39.9 °F 82% 29.98 in 10.0 mi Calm Calm - N/A   Clear
1:53 AM 44.1 °F - 39.9 °F 85% 29.98 in 10.0 mi Calm Calm - N/A   Clear
2:53 AM 43.0 °F - 39.0 °F 86% 29.97 in 10.0 mi Calm Calm - N/A   Clear
3:53 AM 42.1 °F - 39.0 °F 89% 29.95 in 7.0 mi Calm Calm - N/A   Clear
4:53 AM 42.1 °F 40.2 °F 39.0 °F 89% 29.95 in 8.0 mi SSW 3.5 mph - N/A   Clear
5:53 AM 41.0 °F - 37.9 °F 89% 29.93 in 7.0 mi Calm Calm - N/A   Clear
6:53 AM 45.0 °F - 42.1 °F 90% 29.94 in 7.0 mi Calm Calm - N/A   Mostly Cloudy
7:53 AM 46.0 °F 44.8 °F 42.1 °F 86% 29.95 in 10.0 mi West 3.5 mph - N/A   Overcast
8:53 AM 46.9 °F - 43.0 °F 86% 29.96 in 5.0 mi Calm Calm - 0.00 in Rain Light Rain
9:53 AM 48.0 °F - 45.0 °F 89% 29.94 in 4.0 mi SSE 4.6 mph - 0.08 in Rain Light Rain
10:37 AM 48.2 °F - 46.4 °F 93% 29.94 in 4.0 mi SW 5.8 mph - 0.01 in Rain Light Rain
10:53 AM 48.9 °F - 46.0 °F 90% 29.95 in 6.0 mi SW 5.8 mph - 0.01 in   Overcast
11:12 AM 48.2 °F - 46.4 °F 93% 29.95 in 5.0 mi SW 5.8 mph - N/A   Overcast
11:28 AM 50.0 °F - 46.4 °F 87% 29.95 in 5.0 mi WSW 6.9 mph - N/A   Overcast
11:53 AM 50.0 °F - 46.0 °F 86% 29.94 in 5.0 mi WSW 4.6 mph - N/A   Overcast
12:00 PM 50.0 °F - 46.4 °F 87% 29.94 in 5.0 mi WSW 5.8 mph - N/A   Overcast
12:28 PM 50.0 °F - 46.4 °F 87% 29.93 in 6.0 mi WSW 4.6 mph - N/A   Overcast
12:53 PM 52.0 °F - 46.9 °F 83% 29.93 in 9.0 mi WSW 9.2 mph - N/A   Overcast
1:11 PM 53.6 °F - 46.4 °F 77% 29.92 in 10.0 mi SW 9.2 mph - N/A   Overcast
1:28 PM 53.6 °F - 46.4 °F 77% 29.91 in 10.0 mi SW 12.7 mph - N/A   Overcast
1:35 PM 53.6 °F - 46.4 °F 77% 29.91 in 10.0 mi SW 12.7 mph - N/A   Overcast
1:53 PM 53.1 °F - 46.0 °F 77% 29.92 in 10.0 mi WSW 10.4 mph 18.4 mph N/A   Overcast
2:53 PM 53.1 °F - 45.0 °F 74% 29.91 in 10.0 mi West 12.7 mph 20.7 mph N/A   Overcast
3:40 PM 53.6 °F - 44.6 °F 72% 29.90 in 10.0 mi WSW 13.8 mph - N/A   Overcast
3:53 PM 54.0 °F - 45.0 °F 72% 29.91 in 10.0 mi WSW 11.5 mph 18.4 mph N/A   Overcast
4:05 PM 55.4 °F - 44.6 °F 67% 29.90 in 10.0 mi West 11.5 mph - N/A   Overcast
4:20 PM 55.4 °F - 44.6 °F 67% 29.90 in 10.0 mi West 16.1 mph - N/A   Overcast
4:53 PM 55.0 °F - 44.1 °F 67% 29.91 in 10.0 mi West 13.8 mph - N/A   Mostly Cloudy
5:53 PM 55.0 °F - 43.0 °F 64% 29.92 in 10.0 mi West 12.7 mph - N/A   Overcast
6:53 PM 52.0 °F - 42.1 °F 69% 29.93 in 10.0 mi West 5.8 mph - N/A   Clear
7:53 PM 50.0 °F - 42.1 °F 74% 29.95 in 10.0 mi SW 3.5 mph - N/A   Clear
8:53 PM 46.9 °F - 41.0 °F 80% 29.95 in 10.0 mi SSW 4.6 mph - N/A   Clear
9:53 PM 46.0 °F 42.5 °F 39.9 °F 79% 29.97 in 10.0 mi SSW 6.9 mph - N/A   Clear
10:53 PM 46.0 °F 43.1 °F 41.0 °F 83% 29.98 in 10.0 mi South 5.8 mph - N/A   Clear
11:53 PM 46.0 °F 42.5 °F 41.0 °F 83% 29.98 in 10.0 mi South 6.9 mph - N/A   Clear